SCP
0 0 0 0 0 0 -0 0 0 0 0 0 0 0 0 0 0 0 0 0 0 0 0 0 0 0 0 0 0 0 0 0
0 0 0 0 0 0 0 0 0 0 0 0 0 0 0 0 0 0 0 0 0 0 0 0 0 0 0 0 0 0 0 0
0 0 0 0 0 0 0 0 0 0 0 0 0 0 0 0 0 0 0 0 0 0 0 0 0 0 0 0 0 0 0 0
0 0 0 0 0 0 0 0 0 0 0 0 0 0 0 0 0 0 0 0 0 0 0 0 0 0 0 -0 -0 0 0 0
0 0 0 0 0 0 0 0 0 0 0 0 0 0 0 0 0 0 0 0 0 0 0 0 0 0 0 -0 -0 0 0 0
0 0 0 0 0 0 0 0 -0 -0 0 0 0 0 0 0 0 0 0 0 0 0 0 0 0 0 0 -0 -0 0 0 0
0 0 0 0 0 0 0 0 0 0 -0 0 0 0 0 0 0 0 0 0 0 0 0 0 0 0 0 -0 -0 0 0 0
0 0 0 0 0 0 0 0 0 0 0 0 0 0 0 0 0 0 0 0 0 0 0 0 0 0 0 0 -0 0 0 0
0 0 0 0 0 0 0 0 0 0 0 0 0 0 0 0 0 0 0 0 0 0 0 0 0 0 0 0 -0 0 0 0
0 0 0 0 0 0 0 0 0 0 0 0 0 0 0 0 0 0 0 0 0 0 0 0 0 0 0 -0 -0 0 0 0
0 0 0 0 0 0 0 0 -0 -0 -0 0 -0 0 0 0 0 0 0 0 0 0 0 0 0 0 0 0 -0 0 0 0
0 0 0 0 0 0 0 -0 0 0 0 0 0 -0 0 0 0 0 0 0 0 0 0 0 0 0 0 -0 0 0 0 0
0 0 0 0 0 0 0 0 0 -0 0 -0 -0 0 0 0 0 0 0 0 0 0 0 0 0 0 -0 0 0 0 0 0
0 0 0 0 0 0 0 0 0 0 -0 -0 -0 -0 0 0 0 0 0 0 0 0 0 0 0 0 0 0 0 0 0 0
0 0 0 0 0 0 0 0 0 0 -0 -0 0 0 0 0 0 0 0 0 0 0 0 -0 0 0 0 0 0 0 0 0
0 0 0 0 0 0 0 0 0 0 0 0 0 0 0 0 0 0 0 0 0 0 -0 0 0 0 0 0 0 0 0 0
0 0 0 0 0 0 0 0 -0 0 0 0 0 0 0 0 0 0 0 0 0 0 0 0 0 0 0 0 0 0 0 0
0 0 0 0 0 0 0 0 0 0 0 0 0 0 0 0 0 0 0 0 0 0 0 0 0 0 0 0 0 0 0 0
0 0 0 -0 -0 0 0 -0 -0 0 0 0 0 0 0 0 0 0 0 0 0 0 0 0 0 0 0 0 0 0 0 0
0 0 0 0 0 -0 -0 -0 -0 0 0 0 0 0 0 0 0 0 0 0 0 0 0 0 0 0 0 0 0 0 0 0
Wind_Speed_500mb
12 17 23 25 27 28 18 16 17 20 23 25 21 25 32 36 40 41 42 45 47 44 43 36 33 32 30 26 24 31 35 31
13 17 21 24 25 27 25 17 14 18 19 24 28 29 30 33 40 45 43 48 50 45 43 40 39 37 33 32 31 28 29 30
14 18 23 28 30 31 27 20 17 20 21 25 27 31 35 36 38 44 47 50 51 47 47 42 42 42 38 35 38 31 24 22
14 17 23 31 35 37 36 33 23 24 23 23 30 30 37 40 41 43 48 51 53 50 48 44 42 41 40 37 34 32 29 25
14 18 26 31 36 39 41 41 35 21 23 23 30 32 33 43 41 46 48 51 53 57 49 47 42 47 38 35 37 32 31 29
9 14 20 26 31 34 37 41 41 32 22 18 25 33 35 36 44 54 47 54 56 58 46 49 48 46 38 39 37 35 41 38
5 10 17 24 29 32 34 36 38 38 30 23 13 14 20 30 38 41 55 54 59 64 60 53 48 43 34 41 40 38 38 37
2 6 15 23 30 35 36 34 34 34 35 30 19 21 26 33 36 38 50 56 63 66 64 55 46 41 44 34 34 35 37 37
5 7 14 21 28 34 35 35 33 33 33 34 33 25 25 30 33 35 42 50 59 68 66 56 45 37 27 30 24 32 37 33
11 14 19 22 27 36 36 34 34 32 35 36 36 33 28 32 38 38 38 43 53 63 69 48 41 35 34 28 34 33 36 32
18 28 32 34 28 26 30 32 36 35 36 40 41 39 34 32 35 35 32 41 46 59 53 43 40 28 31 33 40 33 29 25
50 42 41 40 36 29 26 31 36 39 41 40 44 43 42 33 25 28 22 28 42 49 48 47 32 30 28 42 36 28 28 21
46 49 50 50 45 43 37 31 35 37 41 41 43 45 45 45 27 21 28 34 27 45 46 32 22 31 42 32 27 25 20 14
48 46 48 54 51 46 43 43 41 40 39 45 44 46 45 46 33 22 29 23 27 40 34 21 30 34 28 21 22 17 11 4
56 56 55 52 48 49 45 42 50 52 47 46 48 46 44 43 38 33 35 33 36 38 37 33 30 24 26 22 16 11 6 5
63 61 61 58 57 59 53 54 51 54 58 51 48 45 45 41 42 34 33 41 51 47 37 36 29 24 22 15 9 6 9 11
54 56 60 59 59 61 55 58 57 51 48 49 45 45 44 42 38 30 27 42 51 46 44 35 28 27 19 9 5 10 9 9
58 61 62 61 63 62 64 65 58 51 46 40 43 42 41 44 36 27 21 46 51 45 43 35 36 28 15 7 9 6 4 6
49 47 51 58 66 58 54 57 56 50 39 39 45 35 37 35 28 24 26 53 55 49 47 37 29 21 14 8 6 5 4 7
61 62 62 59 58 56 55 56 48 45 37 35 36 32 33 26 26 21 54 48 45 44 39 35 29 20 12 10 10 5 7 9
Wind_Direction_500mb
61 39 31 21 9 4 339 292 271 272 286 283 278 258 243 239 236 237 234 232 229 236 234 237 238 239 235 232 235 235 230 227
68 40 26 18 7 3 4 344 293 269 269 275 273 264 261 256 244 239 236 233 233 239 239 241 239 235 233 234 237 240 234 228
68 51 35 25 16 8 3 347 314 289 273 269 272 265 263 260 254 243 240 238 236 241 240 236 236 236 233 239 239 242 234 223
90 60 42 35 27 20 9 359 329 296 293 277 276 272 261 261 261 248 242 240 239 238 241 231 232 234 241 237 236 243 238 239
82 56 42 34 27 20 14 6 356 328 288 282 286 286 274 268 263 253 246 240 234 233 236 227 222 226 220 222 234 247 252 255
82 51 32 25 19 14 12 13 14 10 350 294 276 292 291 281 272 256 251 244 238 235 226 223 230 227 216 226 241 253 256 258
76 31 22 14 11 10 6 4 10 15 9 358 338 308 301 290 292 277 255 247 238 228 223 232 226 228 228 243 233 242 255 262
126 26 13 11 15 17 11 3 2 3 5 5 337 313 297 293 295 291 277 258 244 231 227 230 227 229 219 225 225 246 256 258
272 331 349 357 0 4 5 4 2 359 353 347 344 322 302 305 301 303 290 276 256 237 230 226 224 210 212 227 241 245 251 257
280 306 319 335 341 344 350 352 350 347 349 343 340 340 320 303 296 296 302 296 266 242 224 214 209 190 215 211 230 247 255 258
304 312 310 313 328 331 333 342 342 340 342 343 334 330 325 314 295 300 297 295 268 237 214 201 189 211 216 222 229 250 255 266
290 296 291 293 302 318 320 337 335 334 332 334 332 326 325 316 294 294 290 287 257 230 194 201 190 198 218 227 245 245 248 252
271 277 282 281 285 293 304 313 328 326 326 322 326 326 324 324 304 309 299 281 267 211 200 183 188 214 212 246 251 248 248 255
283 285 287 281 278 283 285 301 311 321 318 317 315 321 319 323 314 301 297 266 229 186 183 178 194 197 227 239 223 235 240 222
280 283 284 286 286 283 282 281 292 305 311 305 305 306 315 315 318 305 286 249 207 181 178 175 201 223 229 219 216 211 219 259
278 277 279 283 285 286 292 289 292 296 298 291 291 295 306 307 318 288 284 246 181 181 187 187 205 220 195 201 205 244 253 280
273 272 272 276 279 281 285 284 287 296 289 280 284 289 302 304 303 299 288 220 196 183 182 191 198 182 181 190 244 243 274 288
275 277 278 280 278 281 279 272 281 288 279 274 279 284 297 303 299 289 266 215 174 156 183 190 186 177 171 203 237 250 288 277
269 278 283 279 276 279 276 273 277 279 269 276 275 273 294 303 305 271 255 168 149 163 181 188 175 169 184 193 203 260 270 289
275 279 283 280 278 280 269 267 274 269 257 271 264 264 292 297 300 175 152 154 163 171 183 181 179 196 202 207 227 242 291 313
Wind_Speed_850mb
12 17 23 25 27 28 18 16 17 20 23 25 21 25 32 36 40 41 42 45 47 44 43 36 33 32 30 26 24 31 35 31
13 17 21 24 25 27 25 17 14 18 19 24 28 29 30 33 40 45 43 48 50 45 43 40 39 37 33 32 31 28 29 30
14 18 23 28 30 31 27 20 17 20 21 25 27 31 35 36 38 44 47 50 51 47 47 42 42 42 38 35 38 31 24 22
14 17 23 31 35 37 36 33 23 24 23 23 30 30 37 40 41 43 48 51 53 50 48 44 42 41 40 37 34 32 29 25
14 18 26 31 36 39 41 41 35 21 23 23 30 32 33 43 41 46 48 51 53 57 49 47 42 47 38 35 37 32 31 29
9 14 20 26 31 34 37 41 41 32 22 18 25 33 35 36 44 54 47 54 56 58 46 49 48 46 38 39 37 35 41 38
5 10 17 24 29 32 34 36 38 38 30 23 13 14 20 30 38 41 55 54 59 64 60 53 48 43 34 41 40 38 38 37
2 6 15 23 30 35 36 34 34 34 35 30 19 21 26 33 36 38 50 56 63 66 64 55 46 41 44 34 34 35 37 37
5 7 14 21 28 34 35 35 33 33 33 34 33 25 25 30 33 35 42 50 59 68 66 56 45 37 27 30 24 32 37 33
11 14 19 22 27 36 36 34 34 32 35 36 36 33 28 32 38 38 38 43 53 63 69 48 41 35 34 28 34 33 36 32
18 28 32 34 28 26 30 32 36 35 36 40 41 39 34 32 35 35 32 41 46 59 53 43 40 28 31 33 40 33 29 25
50 42 41 40 36 29 26 31 36 39 41 40 44 43 42 33 25 28 22 28 42 49 48 47 32 30 28 42 36 28 28 21
46 49 50 50 45 43 37 31 35 37 41 41 43 45 45 45 27 21 28 34 27 45 46 32 22 31 42 32 27 25 20 14
48 46 48 54 51 46 43 43 41 40 39 45 44 46 45 46 33 22 29 23 27 40 34 21 30 34 28 21 22 17 11 4
56 56 55 52 48 49 45 42 50 52 47 46 48 46 44 43 38 33 35 33 36 38 37 33 30 24 26 22 16 11 6 5
63 61 61 58 57 59 53 54 51 54 58 51 48 45 45 41 42 34 33 41 51 47 37 36 29 24 22 15 9 6 9 11
54 56 60 59 59 61 55 58 57 51 48 49 45 45 44 42 38 30 27 42 51 46 44 35 28 27 19 9 5 10 9 9
58 61 62 61 63 62 64 65 58 51 46 40 43 42 41 44 36 27 21 46 51 45 43 35 36 28 15 7 9 6 4 6
49 47 51 58 66 58 54 57 56 50 39 39 45 35 37 35 28 24 26 53 55 49 47 37 29 21 14 8 6 5 4 7
61 62 62 59 58 56 55 56 48 45 37 35 36 32 33 26 26 21 54 48 45 44 39 35 29 20 12 10 10 5 7 9
Wind_Direction_850mb
61 39 31 21 9 4 339 292 271 272 286 283 278 258 243 239 236 237 234 232 229 236 234 237 238 239 235 232 235 235 230 227
68 40 26 18 7 3 4 344 293 269 269 275 273 264 261 256 244 239 236 233 233 239 239 241 239 235 233 234 237 240 234 228
68 51 35 25 16 8 3 347 314 289 273 269 272 265 263 260 254 243 240 238 236 241 240 236 236 236 233 239 239 242 234 223
90 60 42 35 27 20 9 359 329 296 293 277 276 272 261 261 261 248 242 240 239 238 241 231 232 234 241 237 236 243 238 239
82 56 42 34 27 20 14 6 356 328 288 282 286 286 274 268 263 253 246 240 234 233 236 227 222 226 220 222 234 247 252 255
82 51 32 25 19 14 12 13 14 10 350 294 276 292 291 281 272 256 251 244 238 235 226 223 230 227 216 226 241 253 256 258
76 31 22 14 11 10 6 4 10 15 9 358 338 308 301 290 292 277 255 247 238 228 223 232 226 228 228 243 233 242 255 262
126 26 13 11 15 17 11 3 2 3 5 5 337 313 297 293 295 291 277 258 244 231 227 230 227 229 219 225 225 246 256 258
272 331 349 357 0 4 5 4 2 359 353 347 344 322 302 305 301 303 290 276 256 237 230 226 224 210 212 227 241 245 251 257
280 306 319 335 341 344 350 352 350 347 349 343 340 340 320 303 296 296 302 296 266 242 224 214 209 190 215 211 230 247 255 258
304 312 310 313 328 331 333 342 342 340 342 343 334 330 325 314 295 300 297 295 268 237 214 201 189 211 216 222 229 250 255 266
290 296 291 293 302 318 320 337 335 334 332 334 332 326 325 316 294 294 290 287 257 230 194 201 190 198 218 227 245 245 248 252
271 277 282 281 285 293 304 313 328 326 326 322 326 326 324 324 304 309 299 281 267 211 200 183 188 214 212 246 251 248 248 255
283 285 287 281 278 283 285 301 311 321 318 317 315 321 319 323 314 301 297 266 229 186 183 178 194 197 227 239 223 235 240 222
280 283 284 286 286 283 282 281 292 305 311 305 305 306 315 315 318 305 286 249 207 181 178 175 201 223 229 219 216 211 219 259
278 277 279 283 285 286 292 289 292 296 298 291 291 295 306 307 318 288 284 246 181 181 187 187 205 220 195 201 205 244 253 280
273 272 272 276 279 281 285 284 287 296 289 280 284 289 302 304 303 299 288 220 196 183 182 191 198 182 181 190 244 243 274 288
275 277 278 280 278 281 279 272 281 288 279 274 279 284 297 303 299 289 266 215 174 156 183 190 186 177 171 203 237 250 288 277
269 278 283 279 276 279 276 273 277 279 269 276 275 273 294 303 305 271 255 168 149 163 181 188 175 169 184 193 203 260 270 289
275 279 283 280 278 280 269 267 274 269 257 271 264 264 292 297 300 175 152 154 163 171 183 181 179 196 202 207 227 242 291 313